Location: Yecla
(38.6122°N, 1.1101°W)
Time: 23:29:54
(UTC+02:00)

ISS - Visible Passes

Search period start: 23 September 2018 00:00
Search period end: 03 October 2018 00:00
Orbit: 403 x 408 km, 51.6° (Epoch: 23 September)

Date Brightness Start Highest point End Pass type
(mag) Time Alt. Az. Time Alt. Az. Time Alt. Az.
23 Sep -3.6 21:06:36 10° WSW 21:09:52 70° NW 21:12:21 16° NE visible
23 Sep -0.2 22:44:58 10° NW 22:45:04 10° NW 22:45:04 10° NW visible
24 Sep -1.5 21:52:13 10° WNW 21:54:45 20° NNW 21:55:36 18° N visible
25 Sep -2.1 20:59:42 10° W 21:02:40 30° NNW 21:05:39 10° NNE visible
26 Sep -1.0 21:46:09 10° NW 21:47:46 13° NNW 21:48:56 11° N visible
27 Sep -1.2 20:53:16 10° WNW 20:55:34 17° NNW 20:57:52 10° NNE visible
29 Sep -1.0 20:47:17 10° NW 20:48:33 12° NNW 20:49:49 10° N visible
